Probability
0 0 0 0 0 0 0 0 0 0 0 0 0 0 0 0 0 0 0 0 0 0 3 0 0 0 0 0 0 0 0 0 0 0 0 0 0 0 0 0 0 0 0 0
0 0 0 0 0 0 0 0 0 0 0 0 0 0 0 0 0 0 0 0 0 0 0 0 0 0 0 0 0 0 0 0 0 0 0 0 0 0 0 0 0 0 0 0
0 0 0 0 0 0 0 0 0 0 0 0 0 0 0 0 0 0 0 0 0 0 0 0 0 0 0 0 0 0 0 0 0 0 0 0 0 0 0 0 0 0 0 0
0 0 0 0 0 0 0 0 0 0 0 0 0 0 0 0 0 0 0 0 0 0 0 0 0 0 0 0 0 0 0 0 0 0 0 0 0 0 0 0 0 0 0 0
0 0 0 0 0 0 0 0 0 0 0 0 0 0 0 0 0 0 0 0 0 0 0 0 0 0 0 0 0 0 0 0 0 0 0 0 0 0 0 0 0 0 0 0
0 0 0 0 0 0 0 0 0 0 0 0 0 0 0 0 0 0 0 0 0 0 0 0 0 0 0 0 0 0 0 0 0 0 0 0 0 0 0 0 0 0 0 0
0 0 0 0 0 0 0 0 0 0 0 0 0 0 0 0 0 0 0 0 0 0 0 0 0 0 0 0 0 0 0 0 0 0 0 0 0 0 0 0 0 0 0 0
0 0 0 0 0 0 0 0 0 0 0 0 0 0 0 0 0 0 0 0 0 0 0 0 0 0 0 0 0 0 0 0 0 0 0 0 0 0 0 0 0 0 0 0
0 0 0 0 0 0 0 0 0 0 0 0 0 0 0 0 0 0 0 0 0 0 0 0 0 0 0 0 0 0 0 0 0 0 0 0 0 0 0 0 0 0 0 0
0 0 0 0 0 0 0 0 0 0 0 0 0 0 0 0 0 0 0 0 0 0 0 0 0 0 0 0 0 0 0 0 0 0 0 0 0 0 0 0 0 0 0 0
0 0 0 0 0 0 0 0 0 0 0 0 0 0 0 0 0 0 0 0 0 0 0 0 0 0 0 0 0 0 0 0 0 0 0 0 0 0 0 0 0 0 0 0
0 0 0 0 0 0 0 0 0 0 0 0 0 0 0 0 0 0 0 0 0 0 0 0 0 0 0 0 0 0 0 0 0 0 0 0 0 0 0 0 0 0 0 0
0 0 0 0 0 0 0 0 0 0 0 0 0 0 0 0 0 0 0 0 0 0 0 0 0 0 0 0 0 0 0 0 0 0 0 0 0 0 0 0 0 0 0 0
0 0 0 0 0 0 0 0 0 0 0 0 0 0 0 0 0 0 0 0 0 0 0 0 0 0 0 0 0 0 0 0 0 0 0 0 0 0 0 0 0 0 0 0
0 0 0 0 0 0 0 0 0 0 0 0 0 0 0 0 0 0 0 0 0 0 0 0 0 0 0 0 0 0 0 0 0 0 0 0 0 0 0 0 0 0 0 0
0 0 0 0 0 0 0 0 0 0 0 0 0 0 0 0 0 0 0 0 0 0 0 0 0 0 0 0 0 0 0 0 0 0 0 0 0 0 0 0 0 0 0 0
0 0 0 0 0 0 0 0 0 0 0 0 0 0 0 0 0 0 0 0 0 0 0 0 0 0 0 0 0 0 0 0 0 0 0 0 0 0 0 0 0 0 0 0
0 0 0 0 0 0 0 0 0 0 0 0 0 0 0 0 0 0 0 0 0 0 0 0 0 0 0 0 0 0 0 0 0 0 0 0 0 0 0 0 0 0 0 0
0 0 0 0 0 0 0 0 0 0 0 0 0 0 0 0 0 0 0 0 0 0 0 0 0 0 0 0 0 0 0 0 0 0 0 0 0 0 0 0 0 0 0 0
0 0 0 0 0 0 0 0 0 0 0 0 0 0 0 0 0 0 0 0 0 0 0 0 0 0 0 0 0 0 0 0 0 0 0 0 0 0 0 0 0 0 0 0
0 0 0 0 0 0 0 0 0 0 0 0 0 0 0 0 0 0 0 0 0 0 0 0 0 0 0 0 0 0 0 0 0 0 0 0 0 0 0 0 0 0 0 0
0 0 0 0 0 0 0 0 0 0 0 0 0 0 0 0 0 0 0 0 0 0 0 0 0 0 0 0 0 0 0 0 0 0 0 0 0 0 0 0 0 0 0 0
0 0 0 0 0 0 0 0 0 0 0 0 0 0 0 0 0 0 0 0 0 0 0 0 0 0 0 0 0 0 0 0 0 0 0 0 0 0 0 0 0 0 0 0
0 0 0 0 0 0 0 0 0 0 0 0 0 0 0 0 0 0 0 0 0 0 0 0 0 0 0 0 0 0 0 0 0 0 0 0 0 0 0 0 0 0 0 0
0 0 0 0 0 0 0 0 0 0 0 0 0 0 0 0 0 0 0 0 0 0 0 0 0 0 0 0 0 0 0 0 0 0 0 0 0 0 0 0 0 0 0 0
0 0 0 0 0 0 0 0 0 0 0 0 0 0 0 0 0 0 0 0 0 0 0 0 0 0 0 0 0 0 0 0 0 0 0 0 0 0 0 0 0 0 0 0
0 0 0 0 0 0 0 0 0 0 0 0 0 0 0 0 0 0 0 0 0 0 0 0 0 0 0 0 0 0 0 0 0 0 0 0 0 0 0 0 0 0 0 0
Height
5815 5815 5814 5814 5813 5812 5811 5810 5809 5808 5806 5805 5803 5801 5799 5796 5794 5793 5790 5788 5786 5783 5781 5779 5777 5775 5773 5771 5769 5767 5765 5763 5761 5759 5757 5755 5752 5749 5746 5744 5741 5739 5737 5734
5811 5811 5810 5810 5809 5809 5808 5806 5805 5804 5803 5801 5798 5796 5794 5792 5790 5788 5786 5783 5781 5779 5777 5775 5773 5771 5769 5767 5765 5763 5762 5760 5758 5756 5754 5752 5749 5747 5744 5741 5739 5736 5734 5732
5807 5807 5806 5806 5806 5805 5804 5802 5801 5800 5799 5796 5794 5792 5790 5788 5786 5783 5781 5778 5776 5774 5772 5770 5769 5767 5765 5764 5762 5760 5759 5757 5755 5753 5751 5749 5747 5744 5742 5739 5737 5734 5732 5730
5804 5804 5803 5805 5802 5801 5800 5799 5797 5796 5794 5792 5790 5788 5786 5784 5781 5779 5776 5774 5772 5770 5768 5766 5765 5763 5762 5760 5759 5757 5756 5754 5753 5751 5749 5747 5744 5742 5740 5737 5735 5733 5731 5729
5800 5799 5799 5800 5799 5798 5796 5795 5794 5792 5790 5788 5786 5784 5782 5780 5777 5775 5772 5770 5768 5766 5764 5762 5761 5760 5759 5757 5756 5755 5753 5752 5750 5748 5747 5745 5742 5740 5738 5736 5734 5732 5730 5728
5796 5795 5796 5797 5796 5794 5794 5792 5791 5789 5787 5785 5782 5781 5779 5776 5773 5771 5769 5767 5765 5762 5761 5759 5758 5757 5756 5755 5754 5752 5751 5749 5748 5746 5744 5743 5741 5739 5737 5735 5733 5731 5729 5727
5792 5792 5792 5793 5792 5791 5791 5791 5788 5785 5783 5781 5779 5778 5776 5772 5770 5768 5766 5764 5762 5760 5759 5757 5756 5755 5754 5753 5752 5750 5749 5748 5746 5745 5743 5741 5740 5738 5736 5735 5733 5731 5729 5727
5789 5789 5791 5789 5788 5788 5788 5786 5784 5782 5781 5779 5777 5774 5772 5769 5767 5765 5763 5761 5760 5758 5757 5756 5755 5753 5752 5751 5750 5749 5748 5747 5745 5744 5743 5741 5739 5738 5736 5735 5733 5731 5730 5728
5787 5789 5788 5787 5786 5785 5784 5783 5782 5780 5778 5776 5774 5772 5770 5767 5765 5763 5761 5760 5759 5757 5756 5755 5754 5753 5752 5750 5749 5748 5748 5746 5745 5744 5742 5741 5739 5738 5736 5735 5733 5732 5730 5728
5784 5784 5784 5784 5783 5783 5782 5781 5780 5778 5776 5775 5773 5771 5768 5766 5764 5762 5761 5759 5758 5757 5756 5755 5753 5753 5752 5751 5749 5748 5748 5747 5745 5744 5742 5741 5740 5738 5737 5735 5734 5732 5731 5729
5780 5782 5782 5782 5781 5781 5780 5779 5778 5777 5775 5773 5771 5769 5767 5765 5763 5762 5760 5759 5758 5756 5755 5755 5754 5753 5752 5751 5750 5749 5748 5747 5745 5744 5743 5742 5740 5739 5738 5736 5735 5734 5732 5731
5778 5780 5780 5780 5780 5780 5779 5778 5777 5775 5774 5772 5770 5768 5766 5765 5763 5762 5760 5759 5758 5757 5756 5755 5754 5754 5753 5752 5751 5750 5749 5748 5746 5745 5744 5743 5741 5740 5739 5737 5736 5735 5733 5732
5775 5776 5777 5778 5778 5778 5778 5777 5776 5775 5773 5772 5770 5768 5766 5765 5764 5762 5761 5760 5759 5757 5757 5756 5755 5754 5754 5753 5752 5751 5750 5748 5747 5746 5745 5744 5742 5741 5740 5738 5737 5735 5734 5733
5772 5774 5775 5776 5777 5777 5777 5776 5775 5774 5773 5772 5771 5769 5768 5766 5765 5763 5762 5761 5760 5759 5758 5757 5756 5755 5754 5753 5753 5752 5750 5749 5748 5747 5746 5744 5743 5742 5740 5739 5737 5736 5734 5733
5770 5772 5773 5774 5775 5775 5775 5775 5775 5774 5773 5772 5771 5770 5769 5767 5766 5765 5764 5762 5761 5760 5759 5758 5757 5756 5755 5754 5753 5752 5751 5750 5749 5748 5746 5745 5743 5742 5740 5739 5738 5736 5735 5734
5768 5769 5771 5772 5773 5774 5774 5774 5774 5774 5773 5772 5772 5771 5770 5769 5767 5766 5765 5764 5763 5762 5761 5760 5758 5757 5756 5755 5754 5753 5752 5751 5750 5748 5747 5745 5744 5742 5741 5739 5738 5736 5735 5734
5765 5767 5769 5770 5771 5772 5773 5773 5773 5773 5773 5773 5772 5771 5770 5770 5769 5768 5766 5765 5764 5763 5762 5761 5760 5759 5757 5756 5755 5754 5753 5751 5750 5749 5747 5746 5744 5743 5741 5740 5738 5737 5736 5734
5763 5765 5767 5768 5770 5771 5771 5772 5773 5773 5773 5773 5772 5772 5771 5770 5770 5769 5768 5767 5766 5765 5763 5762 5761 5760 5758 5757 5756 5755 5753 5752 5750 5749 5747 5746 5744 5743 5741 5740 5738 5737 5736 5734
5760 5763 5765 5766 5768 5769 5770 5771 5772 5772 5772 5772 5772 5772 5771 5771 5770 5770 5769 5768 5767 5766 5765 5763 5762 5761 5759 5758 5756 5755 5754 5752 5750 5749 5747 5746 5744 5743 5741 5740 5738 5737 5735 5734
5758 5761 5762 5764 5766 5767 5769 5770 5771 5771 5771 5772 5772 5772 5771 5771 5771 5770 5769 5768 5767 5766 5765 5764 5763 5761 5760 5759 5757 5756 5754 5752 5751 5749 5747 5746 5744 5742 5741 5739 5737 5736 5734 5733
5756 5759 5761 5763 5765 5766 5767 5768 5769 5770 5771 5771 5771 5771 5771 5771 5770 5770 5769 5768 5768 5766 5765 5764 5763 5762 5760 5759 5757 5756 5754 5752 5751 5749 5747 5745 5743 5742 5740 5738 5736 5734 5733 5731
5754 5756 5758 5761 5763 5764 5766 5767 5768 5769 5769 5770 5770 5770 5770 5770 5770 5769 5769 5768 5767 5766 5765 5764 5763 5762 5760 5759 5757 5755 5754 5752 5750 5748 5746 5744 5742 5740 5738 5736 5734 5732 5730 5728
5751 5754 5756 5758 5761 5762 5764 5765 5766 5767 5768 5768 5769 5769 5769 5769 5769 5769 5768 5768 5766 5765 5764 5763 5762 5761 5760 5758 5756 5755 5753 5751 5749 5747 5745 5742 5740 5738 5736 5733 5731 5729 5727 5725
5749 5752 5754 5757 5759 5761 5762 5764 5765 5766 5767 5767 5767 5768 5768 5768 5768 5767 5767 5766 5765 5764 5763 5762 5761 5760 5758 5757 5755 5753 5751 5749 5747 5745 5742 5740 5738 5735 5732 5730 5728 5725 5723 5720
5747 5750 5752 5755 5757 5759 5761 5762 5763 5764 5765 5765 5766 5766 5766 5766 5766 5766 5765 5764 5764 5763 5762 5761 5759 5758 5756 5754 5753 5751 5749 5747 5744 5742 5739 5736 5734 5731 5728 5726 5723 5720 5718 5715
5745 5748 5750 5753 5755 5757 5759 5760 5761 5762 5763 5763 5764 5764 5764 5764 5764 5764 5763 5762 5762 5761 5760 5758 5757 5755 5753 5752 5750 5748 5745 5743 5740 5738 5735 5732 5729 5726 5724 5721 5718 5715 5712 5709
5742 5745 5748 5750 5753 5755 5756 5757 5759 5760 5761 5761 5762 5762 5762 5762 5761 5761 5760 5759 5759 5758 5756 5755 5754 5752 5750 5748 5746 5744 5741 5739 5736 5733 5730 5727 5724 5721 5718 5715 5712 5709 5706 5702
Wind_Speed
16 16 16 15 15 16 16 18 19 18 18 18 19 20 20 19 19 20 20 20 19 18 18 17 17 16 16 16 15 14 14 14 14 14 15 15 15 15 16 15 15 15 14 13
15 15 16 16 16 16 17 18 19 18 18 18 19 19 19 19 19 19 19 19 19 18 17 17 16 15 15 14 13 12 12 13 13 14 14 14 14 14 14 14 14 13 12 12
15 15 14 14 14 15 16 16 17 17 17 17 17 18 18 18 18 19 19 18 18 17 17 16 15 15 13 12 12 11 11 12 12 12 12 13 13 13 13 12 12 11 11 11
15 14 14 13 13 14 15 16 16 15 16 16 16 16 16 16 16 17 17 16 16 16 15 15 13 12 11 11 11 10 10 11 11 11 12 12 13 13 12 11 10 10 10 11
14 15 14 13 13 13 14 14 14 14 14 15 15 14 14 14 14 15 14 15 15 14 13 12 11 10 9 9 8 8 8 9 9 10 10 11 11 11 10 9 9 9 9 10
14 15 14 12 12 13 13 12 12 12 13 13 13 13 13 13 13 13 13 13 12 11 10 9 8 7 7 7 7 7 7 8 8 9 9 10 10 10 9 9 9 9 9 9
13 13 12 12 12 12 11 11 11 11 11 12 12 12 12 12 12 12 11 11 10 9 7 7 6 6 6 6 6 6 6 7 7 7 8 8 8 9 8 8 8 8 8 8
12 12 11 11 11 10 10 10 10 10 10 11 11 11 11 11 10 10 9 9 8 7 6 6 6 5 5 5 5 5 5 5 6 6 7 8 8 8 8 7 8 8 8 7
12 11 10 10 10 9 9 9 9 9 10 10 10 10 9 9 9 8 8 8 7 6 6 6 5 5 4 4 4 4 4 5 5 6 6 7 7 8 8 8 8 8 8 7
11 10 10 9 8 8 8 8 8 9 9 9 8 8 8 8 8 8 7 7 6 6 6 5 4 4 4 4 4 4 5 5 6 6 6 7 7 8 8 8 8 8 7 7
10 9 9 8 7 7 8 7 7 7 7 8 8 8 8 7 7 7 7 7 6 6 5 4 4 4 4 4 5 5 5 6 6 6 6 7 7 8 8 8 9 8 8 7
10 8 8 7 6 6 6 5 5 5 6 7 8 8 7 7 7 7 7 7 7 6 5 5 5 5 5 5 5 5 5 6 6 6 6 6 6 7 8 8 8 8 8 8
10 9 8 6 5 5 4 4 4 4 5 6 7 7 7 7 6 6 7 7 7 6 6 5 5 5 5 5 5 5 6 6 6 6 6 6 6 7 8 8 8 8 8 8
9 8 7 6 5 4 3 2 2 3 3 5 6 6 7 7 7 7 7 7 7 7 7 6 5 5 5 5 5 5 6 6 6 7 7 7 7 7 8 8 8 8 8 8
9 9 7 6 5 4 3 2 1 2 3 4 5 5 6 6 7 7 8 8 8 8 7 7 7 6 5 5 5 6 6 7 7 7 8 7 7 8 8 8 8 8 8 8
10 9 8 6 6 5 3 2 1 1 2 3 4 5 6 6 7 7 7 8 8 8 7 7 7 7 7 6 6 7 7 7 7 8 8 8 8 8 8 8 8 8 8 8
11 10 9 7 6 5 4 3 1 0 1 2 3 4 5 6 7 7 7 7 8 8 8 8 8 8 7 7 7 8 8 8 8 8 8 8 8 8 8 8 8 8 8 8
12 11 10 8 7 6 5 4 2 1 0 1 2 3 4 5 6 6 7 7 7 7 7 8 8 8 8 8 8 8 8 8 8 8 8 8 9 9 8 8 8 8 8 8
13 12 10 9 8 7 6 5 3 2 1 1 1 2 3 4 5 5 6 6 7 7 7 8 8 8 8 8 8 8 9 9 9 9 9 9 9 9 9 9 8 8 8 8
14 12 10 9 8 7 6 5 4 3 2 2 1 1 2 3 4 5 5 6 6 6 6 7 7 8 8 8 8 8 9 9 9 9 10 10 10 10 10 10 10 10 10 11
15 13 11 9 8 7 7 6 5 4 3 3 2 1 1 2 3 4 5 5 6 6 6 7 7 7 8 8 8 9 9 9 10 10 11 11 11 11 11 11 11 12 12 13
15 13 12 10 9 8 7 6 5 4 3 3 3 2 2 2 3 4 5 5 6 6 6 7 7 8 8 8 9 10 10 10 11 11 12 12 12 12 13 13 13 14 14 15
15 14 12 11 10 9 8 6 5 4 4 3 3 2 2 3 3 4 4 5 5 6 7 7 8 8 9 9 10 10 10 12 13 13 14 14 14 15 15 15 16 16 17 17
15 14 13 12 11 9 8 7 6 5 5 4 3 3 3 3 4 4 5 5 6 7 7 8 9 10 10 11 11 11 13 14 14 15 16 16 17 17 17 18 18 19 19 20
15 14 13 12 11 10 9 8 7 6 5 4 4 4 4 5 5 6 6 7 8 8 9 10 10 11 12 13 13 14 15 16 17 17 18 18 19 19 20 20 21 21 22 23
16 15 14 13 12 10 9 8 8 7 6 6 6 6 6 7 7 8 8 9 10 11 11 12 12 13 14 15 16 16 17 18 19 19 20 21 21 22 22 22 23 23 24 25
16 15 14 13 12 11 10 9 8 8 7 7 7 8 8 9 9 10 10 11 12 13 13 14 15 15 16 17 18 19 19 20 20 21 22 22 23 24 24 24 25 25 26 26
Wind_Direction
274 275 278 277 276 278 281 285 290 293 294 294 293 294 295 297 296 297 298 298 297 297 296 297 297 299 294 294 295 297 299 301 303 305 309 314 317 316 315 315 315 314 316 317
274 276 279 278 277 277 281 285 289 290 293 293 293 295 296 297 297 299 300 299 296 296 296 296 297 299 300 299 300 300 301 303 305 307 309 313 316 319 319 319 319 319 320 323
278 279 281 280 279 280 284 287 289 290 293 295 296 297 298 299 299 300 302 300 298 297 297 297 298 298 299 298 299 299 299 302 306 309 313 317 320 324 326 326 323 324 324 323
276 278 280 285 283 285 287 288 289 293 296 298 300 301 301 302 303 304 303 303 302 300 300 300 297 297 298 300 300 302 304 305 308 312 316 320 324 327 332 334 331 330 331 331
274 276 280 283 286 289 291 290 292 296 299 302 303 303 304 306 308 310 309 309 308 304 302 302 300 298 299 303 305 306 307 309 314 319 322 324 328 332 336 337 336 337 338 339
272 275 280 282 288 291 292 292 298 302 304 307 309 309 309 310 312 314 314 313 313 310 308 307 306 304 303 306 310 312 313 318 323 327 328 327 331 338 339 340 344 347 348 351
271 274 278 283 288 292 294 300 305 309 310 312 314 315 315 314 314 315 316 317 318 320 320 320 319 315 311 309 316 322 325 327 333 337 337 337 341 347 349 349 351 354 357 357
270 273 277 281 285 291 299 304 308 313 316 318 320 322 323 323 323 322 324 326 328 327 329 331 331 328 323 322 327 334 336 340 344 349 345 350 355 358 1 1 360 1 2 2
267 271 276 281 284 291 300 307 311 313 316 321 325 328 332 336 337 336 336 337 339 341 342 342 344 347 350 351 353 0 356 353 354 358 359 358 359 4 7 6 2 3 6 9
262 267 272 277 285 293 301 306 310 319 322 327 331 334 338 344 347 348 347 351 355 357 356 359 3 4 7 11 19 15 7 2 5 10 11 2 2 5 9 9 6 5 7 12
257 260 265 276 284 292 300 309 313 325 334 338 340 341 344 351 355 358 1 5 3 3 9 15 18 14 17 17 10 5 6 8 13 14 12 13 11 10 11 11 12 13 12 10
252 253 257 267 279 292 303 315 321 331 340 345 350 352 357 2 6 7 10 15 19 21 28 31 27 26 24 24 22 17 14 17 15 17 16 15 11 9 9 9 10 10 12 12
244 241 244 252 269 284 301 312 322 340 353 358 1 4 8 11 15 17 19 22 27 32 35 39 38 36 31 27 25 23 20 18 19 17 12 4 1 3 4 4 4 5 7 9
235 235 237 244 253 264 280 291 319 342 6 13 18 22 24 26 28 31 32 33 37 38 40 40 38 33 28 25 23 20 20 21 17 10 3 0 359 358 359 359 358 358 359 1
226 228 230 234 237 244 254 263 303 353 10 10 17 27 29 32 36 36 34 34 35 37 38 37 34 32 28 24 19 15 12 9 6 5 5 4 0 357 356 356 355 355 356 358
218 221 224 223 223 226 233 235 263 345 12 18 21 26 31 33 33 35 36 34 35 37 37 35 32 28 25 20 15 10 6 3 0 359 358 357 357 357 357 357 357 357 356 355
216 216 217 218 218 219 220 217 228 315 13 22 26 32 36 37 38 39 36 35 36 36 36 33 29 25 22 19 15 10 4 1 358 357 354 353 352 351 352 354 355 356 355 355
211 211 212 213 212 211 214 217 218 233 356 51 47 39 35 35 33 33 33 35 34 31 29 26 24 22 18 14 11 10 7 2 358 357 355 354 352 350 348 347 347 346 346 345
205 205 205 205 207 209 211 214 214 216 202 157 70 41 36 35 33 31 31 30 28 26 24 22 19 15 13 12 11 9 6 3 0 358 356 355 354 353 349 344 340 336 334 332
201 199 195 197 203 208 212 214 214 209 201 196 180 45 39 38 31 25 21 18 17 14 12 11 8 6 6 5 6 5 1 359 358 356 353 350 348 346 344 340 336 333 330 327
199 196 194 196 202 208 212 214 213 212 213 213 213 235 359 15 10 5 4 4 3 360 358 357 357 358 358 356 355 353 352 350 349 348 346 343 340 337 336 334 330 327 326 323
197 196 196 200 204 207 206 207 208 211 215 219 231 254 285 310 328 338 345 349 350 349 350 352 353 353 351 349 346 345 345 345 343 341 339 337 333 329 326 325 322 319 317 315
195 197 200 201 202 204 203 204 207 212 218 227 240 259 284 302 313 320 330 338 340 341 342 344 344 343 342 340 340 340 339 337 336 334 331 328 326 324 321 318 316 314 312 311
193 196 199 201 204 204 205 206 209 216 221 230 243 258 277 294 306 313 317 321 325 329 333 335 334 333 333 332 331 330 329 329 328 327 326 325 325 323 320 316 314 313 312 312
194 196 200 203 204 206 210 210 213 219 226 236 249 262 275 287 296 304 308 310 315 318 320 322 323 323 323 324 324 323 322 322 321 320 320 319 319 318 317 315 313 312 311 311
197 200 203 205 206 209 212 215 221 228 236 246 259 270 280 289 294 299 302 304 307 310 312 314 316 317 317 318 320 320 320 320 319 318 317 316 316 315 315 314 312 311 310 310
198 201 205 209 214 217 219 221 227 235 246 257 266 275 283 289 293 295 298 301 303 305 307 308 309 311 313 314 316 317 319 319 317 317 316 316 316 316 315 314 312 311 310 309